Location: Saluda
(35.2377°N, 82.3468°W)
Time: 02:33:33
(UTC+00:00)

SR - Pass Details

Date: 05 October 2022
Orbit: 577 x 874 km, 66.7° (Epoch: 06 December)

Event Time Altitude Azimuth Distance (km) Brightness Sun altitude
Rises 01:30:57 0° 208° (SSW) 3,387 ? -29.6°
Reaches altitude 10° 01:33:23 10° 209° (SSW) 2,480 ? -30.0°
Enters shadow 01:36:55 39° 214° (SW) 1,268 ? -30.7°
